Location: Hall+in+Tirol
(47.2830°N, 11.5170°E)
Time: 16:40:33
(UTC+02:00)

Amateur Radio Satellites - All Passes

Search period start: 24 October 2014 16:10
Search period end: 25 October 2014 16:10
Location: Hall+in+Tirol, 47.2830°N, 11.5170°E

Satellite Date Start Highest point End Downlink Frequencies (MHz)
Time Altitude Azimuth
ISS 24 Oct 16:13:13 16:16:24 40° 352° (N) 16:19:35 145.800 FM
Uosat F 24 Oct 16:34:02 16:39:03 76° 73° (ENE) 16:44:07 435.120 FM
Saudisat 1A 24 Oct 16:36:54 16:41:21 78° 51° (NE) 16:45:46 436.775 MHz
Hamsat 24 Oct 16:38:09 16:39:30 11° 58° (ENE) 16:40:51 145.90 MHz
UOSAT-12 24 Oct 16:45:43 16:50:07 40° 317° (NW) 16:54:37 437.025 FM, 437.400 FM
JAS-2 24 Oct 16:58:57 17:04:33 40° 63° (ENE) 17:10:52 435.800 - 435.900 CW/SSB, 435.910 FM
KITSAT 1 24 Oct 17:02:25 17:08:16 21° 350° (N) 17:14:07 435.175 FM
SO-50 24 Oct 17:03:15 17:04:58 12° 344° (NNW) 17:06:41 436.795 FM
AO-7 24 Oct 17:34:46 17:42:21 39° 263° (W) 17:50:00 29.400 - 29.500 MHz
ISS 24 Oct 17:50:17 17:53:31 45° 12° (NNE) 17:56:45 145.800 FM
OPAL 24 Oct 18:10:30 18:15:10 39° 100° (E) 18:19:46 ?
Hamsat 24 Oct 18:10:35 18:14:48 88° 254° (WSW) 18:19:01 145.90 MHz
Uosat F 24 Oct 18:15:30 18:18:25 15° 271° (W) 18:21:21 435.120 FM
SO-67 24 Oct 18:16:52 18:18:32 13° 63° (ENE) 18:20:13 435.3500 MHz FM
Saudisat 1A 24 Oct 18:17:55 18:20:20 15° 250° (WSW) 18:22:45 436.775 MHz
UOSAT-12 24 Oct 18:29:14 18:31:33 13° 340° (NNW) 18:33:53 437.025 FM, 437.400 FM
JAS-2 24 Oct 18:43:59 18:49:36 41° 265° (W) 18:55:59 435.800 - 435.900 CW/SSB, 435.910 FM
SO-50 24 Oct 18:47:04 18:47:44 10° 10° (N) 18:48:23 436.795 FM
KITSAT 1 24 Oct 19:00:32 19:06:55 25° 20° (NNE) 19:13:17 435.175 FM
HO-68 24 Oct 19:03:07 19:07:18 17° 46° (NE) 19:11:29 435.675 MHz FM
ISS 24 Oct 19:27:01 19:30:18 54° 211° (SSW) 19:33:34 145.800 FM
SO-67 24 Oct 19:47:48 19:51:08 48° 261° (W) 19:54:30 435.3500 MHz FM
OPAL 24 Oct 19:49:37 19:53:57 31° 298° (WNW) 19:58:15 ?
STRAND 1 24 Oct 19:53:47 19:58:50 51° 100° (E) 20:03:50 ?
Oscar 10/S400 24 Oct 19:57:42 20:25:06 48° 188° (S) 03:44:15 145.825 - 145.975 CW/USB, Beacon 145.810 USB
AO-40 24 Oct 20:07:05 00:20:08 30° 141° (SE) 01:52:09 Beacon 2401.320
SO-50 24 Oct 20:26:15 20:30:03 23° 33° (NNE) 20:33:54 436.795 FM
Oscar 11 24 Oct 20:27:25 20:28:28 11° 57° (ENE) 20:29:30 145.825 FM, Beacon 2401.500 USB
HO-68 24 Oct 20:46:39 20:53:43 65° 67° (ENE) 21:00:50 435.675 MHz FM
KITSAT 1 24 Oct 20:56:13 21:04:12 58° 47° (NE) 21:12:08 435.175 FM
ZACube-1 24 Oct 21:13:39 21:16:16 15° 60° (ENE) 21:18:51 437.345 MHz
UKube-1 24 Oct 21:18:02 21:22:01 36° 67° (ENE) 21:26:02 145.840 MHz, 145.915 MHz
RS-15 24 Oct 21:19:50 21:27:37 23° 100° (E) 21:35:21 29.354 - 29.394 USB, Beacon 29.352 USB
STRAND 1 24 Oct 21:33:33 21:37:44 25° 298° (WNW) 21:41:53 ?
UOSAT-12 24 Oct 21:52:35 21:55:55 19° 29° (NNE) 21:59:14 437.025 FM, 437.400 FM
FUNcube-1 24 Oct 21:56:37 22:00:46 36° 68° (ENE) 22:04:53 145.950 - 145.970 MHz USB
Oscar 11 24 Oct 21:59:35 22:03:55 81° 75° (ENE) 22:08:16 145.825 FM, Beacon 2401.500 USB
SO-50 24 Oct 22:06:21 22:11:12 83° 234° (SW) 22:16:05 436.795 FM
HO-68 24 Oct 22:35:56 22:41:56 28° 267° (W) 22:47:59 435.675 MHz FM
ZACube-1 24 Oct 22:47:32 22:52:07 75° 258° (WSW) 22:56:40 437.345 MHz
KITSAT 1 24 Oct 22:51:59 22:59:23 41° 249° (WSW) 23:06:45 435.175 FM
UKube-1 24 Oct 22:54:40 22:58:18 25° 265° (W) 23:01:57 145.840 MHz, 145.915 MHz
RS-15 24 Oct 23:27:15 23:38:14 83° 124° (ESE) 23:49:13 29.354 - 29.394 USB, Beacon 29.352 USB
UOSAT-12 24 Oct 23:32:08 23:36:53 73° 51° (NE) 23:41:33 437.025 FM, 437.400 FM
FUNcube-1 24 Oct 23:33:16 23:37:12 28° 265° (W) 23:41:06 145.950 - 145.970 MHz USB
Oscar 11 24 Oct 23:39:23 23:40:41 11° 273° (W) 23:41:58 145.825 FM, Beacon 2401.500 USB
SO-50 24 Oct 23:48:54 23:51:02 13° 252° (WSW) 23:53:11 436.795 FM
MaSat-1 25 Oct 00:38:59 00:43:04 81° 118° (ESE) 00:46:44 437.345 MHz
UOSAT-12 25 Oct 01:13:26 01:16:29 17° 249° (WSW) 01:19:31 437.025 FM, 437.400 FM
Oscar 16 25 Oct 01:20:57 01:22:11 11° 85° (E) 01:23:25 437.025 USB, Beacon 2401.1428
RS-15 25 Oct 01:41:35 01:51:47 42° 332° (NNW) 02:02:08 29.354 - 29.394 USB, Beacon 29.352 USB
Oscar 19 25 Oct 02:11:50 02:16:23 31° 95° (E) 02:20:54 437.125 CW, 437.150 USB
JAS-1B 25 Oct 02:13:54 02:19:53 35° 97° (E) 02:26:50 435.800 - 435.900 CW/SSB
MaSat-1 25 Oct 02:17:07 02:19:04 13° 314° (NW) 02:20:56 437.345 MHz
AO-27 25 Oct 02:29:33 02:33:23 20° 91° (E) 02:37:11 436.795 MHz FM
AO-Echo 25 Oct 02:53:48 02:58:51 42° 98° (E) 03:03:53 ?
Oscar 16 25 Oct 02:57:14 03:02:23 79° 104° (ESE) 03:07:31 437.025 USB, Beacon 2401.1428
Sapphire 25 Oct 03:05:20 03:06:00 10° 101° (E) 03:06:40 437.095 MHz 1200 baud AX-25 AFSK
Uribyol 2 25 Oct 03:16:31 03:21:38 52° 100° (E) 03:26:41 436.500 FM
ITAMSAT 1 25 Oct 03:22:29 03:27:39 56° 101° (E) 03:32:45 435.822 SSB
PCSat 25 Oct 03:24:41 03:28:12 18° 105° (ESE) 03:31:43 145.825 MHz
Gurwin Techsat 1B 25 Oct 03:41:25 03:46:33 46° 99° (E) 03:51:38 435.225 FM
AO-7 25 Oct 03:42:08 03:45:14 12° 83° (E) 03:48:20 29.400 - 29.500 MHz
Oscar 19 25 Oct 03:51:04 03:55:47 38° 294° (WNW) 04:00:29 437.125 CW, 437.150 USB
OPAL 25 Oct 03:51:58 03:55:14 17° 55° (NE) 03:58:29 ?
TMSAT-1 25 Oct 03:52:46 03:57:51 43° 98° (E) 04:02:53 436.925 FM
RS-15 25 Oct 03:58:19 04:07:49 32° 6° (N) 04:17:31 29.354 - 29.394 USB, Beacon 29.352 USB
JAS-1B 25 Oct 04:04:30 04:10:40 51° 292° (WNW) 04:17:58 435.800 - 435.900 CW/SSB
AO-27 25 Oct 04:08:08 04:13:19 61° 289° (WNW) 04:18:27 436.795 MHz FM
AO-Echo 25 Oct 04:32:51 04:37:28 31° 296° (WNW) 04:42:06 ?
Oscar 16 25 Oct 04:37:52 04:41:08 17° 303° (WNW) 04:44:23 437.025 USB, Beacon 2401.1428
Uosat F 25 Oct 04:39:35 04:43:03 18° 91° (E) 04:46:30 435.120 FM
Sapphire 25 Oct 04:43:01 04:48:23 68° 119° (ESE) 04:53:47 437.095 MHz 1200 baud AX-25 AFSK
Uribyol 2 25 Oct 04:56:36 05:00:48 25° 299° (WNW) 05:04:58 436.500 FM
ITAMSAT 1 25 Oct 05:02:40 05:06:47 24° 299° (WNW) 05:10:53 435.822 SSB
PCSat 25 Oct 05:05:32 05:10:57 79° 304° (NW) 05:16:25 145.825 MHz
Gurwin Techsat 1B 25 Oct 05:21:48 05:26:19 29° 297° (WNW) 05:30:48 435.225 FM
OPAL 25 Oct 05:28:22 05:33:31 82° 253° (WSW) 05:38:38 ?
AO-7 25 Oct 05:31:31 05:39:46 62° 104° (ESE) 05:48:00 29.400 - 29.500 MHz
TMSAT-1 25 Oct 05:33:02 05:37:36 30° 297° (WNW) 05:42:10 436.925 FM
STRAND 1 25 Oct 05:36:15 05:39:26 17° 57° (ENE) 05:42:37 ?
JAS-2 25 Oct 05:48:38 05:55:28 33° 92° (E) 06:02:18 435.800 - 435.900 CW/SSB, 435.910 FM
AO-27 25 Oct 05:50:27 05:51:48 11° 309° (NW) 05:53:10 436.795 MHz FM
Hamsat 25 Oct 05:54:38 05:56:38 13° 89° (E) 05:58:38 145.90 MHz
JAS-1B 25 Oct 05:58:46 06:00:06 11° 312° (NW) 06:01:28 435.800 - 435.900 CW/SSB
RS-15 25 Oct 06:12:30 06:23:18 54° 38° (NE) 06:34:28 29.354 - 29.394 USB, Beacon 29.352 USB
Uosat F 25 Oct 06:17:17 06:22:18 64° 289° (WNW) 06:27:17 435.120 FM
Sapphire 25 Oct 06:27:42 06:32:17 27° 320° (NW) 06:36:53 437.095 MHz 1200 baud AX-25 AFSK
PCSat 25 Oct 06:51:17 06:55:15 20° 326° (NNW) 06:59:14 145.825 MHz
OPAL 25 Oct 07:11:27 07:13:10 12° 271° (W) 07:14:52 ?
STRAND 1 25 Oct 07:12:50 07:17:58 83° 255° (WSW) 07:23:10 ?
AO-7 25 Oct 07:24:48 07:32:12 38° 305° (NW) 07:39:38 29.400 - 29.500 MHz
Hamsat 25 Oct 07:28:52 07:33:02 66° 286° (WNW) 07:37:13 145.90 MHz
JAS-2 25 Oct 07:33:15 07:40:51 65° 290° (WNW) 07:48:35 435.800 - 435.900 CW/SSB, 435.910 FM
Uosat F 25 Oct 07:58:47 08:00:07 11° 308° (NW) 08:01:27 435.120 FM
Sapphire 25 Oct 08:16:36 08:17:42 11° 345° (NNW) 08:18:47 437.095 MHz 1200 baud AX-25 AFSK
Saudisat 1A 25 Oct 08:25:08 08:29:29 67° 124° (SE) 08:33:53 436.775 MHz
RS-15 25 Oct 08:25:10 08:36:00 61° 243° (WSW) 08:47:17 29.354 - 29.394 USB, Beacon 29.352 USB
SO-67 25 Oct 08:40:41 08:44:08 64° 285° (WNW) 08:47:32 435.3500 MHz FM
MaSat-1 25 Oct 08:47:04 08:49:20 22° 51° (NE) 08:51:26 437.345 MHz
STRAND 1 25 Oct 08:56:13 08:57:58 12° 274° (W) 08:59:44 ?
JAS-2 25 Oct 09:19:51 09:24:34 18° 310° (NW) 09:29:22 435.800 - 435.900 CW/SSB, 435.910 FM
AO-7 25 Oct 09:20:10 09:22:39 12° 329° (NNW) 09:25:10 29.400 - 29.500 MHz
Oscar 11 25 Oct 09:46:05 09:47:43 12° 88° (E) 09:49:20 145.825 FM, Beacon 2401.500 USB
HO-68 25 Oct 09:58:24 10:05:23 50° 100° (E) 10:12:19 435.675 MHz FM
Saudisat 1A 25 Oct 10:05:56 10:09:28 23° 324° (NW) 10:13:03 436.775 MHz
MaSat-1 25 Oct 10:23:14 10:24:43 14° 253° (WSW) 10:26:08 437.345 MHz
PCSat 25 Oct 10:25:07 10:27:07 12° 19° (NNE) 10:29:07 145.825 MHz
ZACube-1 25 Oct 10:34:53 10:37:39 17° 90° (E) 10:40:22 437.345 MHz
UKube-1 25 Oct 10:38:48 10:42:59 42° 99° (E) 10:47:07 145.840 MHz, 145.915 MHz
RS-15 25 Oct 10:40:58 10:45:53 14° 266° (W) 10:50:55 29.354 - 29.394 USB, Beacon 29.352 USB
FUNcube-1 25 Oct 11:18:37 11:22:45 45° 99° (E) 11:26:46 145.950 - 145.970 MHz USB
Oscar 11 25 Oct 11:20:07 11:24:26 76° 286° (WNW) 11:28:44 145.825 FM, Beacon 2401.500 USB
KITSAT 1 25 Oct 11:30:11 11:36:03 23° 103° (ESE) 11:41:55 435.175 FM
Sapphire 25 Oct 11:45:00 11:49:25 24° 38° (NE) 11:53:49 437.095 MHz 1200 baud AX-25 AFSK
HO-68 25 Oct 11:46:24 11:52:57 39° 300° (WNW) 11:59:28 435.675 MHz FM
Oscar 19 25 Oct 11:57:11 11:58:22 11° 52° (NE) 11:59:34 437.125 CW, 437.150 USB
PCSat 25 Oct 12:07:22 12:12:17 34° 44° (NE) 12:17:11 145.825 MHz
ZACube-1 25 Oct 12:10:14 12:14:24 51° 289° (WNW) 12:18:28 437.345 MHz
UKube-1 25 Oct 12:15:30 12:18:56 23° 297° (WNW) 12:22:22 145.840 MHz, 145.915 MHz
SO-50 25 Oct 12:26:21 12:28:50 15° 109° (ESE) 12:31:21 436.795 FM
AO-Echo 25 Oct 12:35:02 12:36:53 12° 53° (NE) 12:38:45 ?
Oscar 16 25 Oct 12:39:31 12:43:36 24° 61° (ENE) 12:47:41 437.025 USB, Beacon 2401.1428
FUNcube-1 25 Oct 12:55:42 12:58:50 20° 297° (WNW) 13:01:55 145.950 - 145.970 MHz USB
Uribyol 2 25 Oct 13:00:27 13:03:53 18° 57° (ENE) 13:07:21 436.500 FM
JAS-1B 25 Oct 13:04:26 13:09:37 35° 63° (ENE) 13:14:42 435.800 - 435.900 CW/SSB
ITAMSAT 1 25 Oct 13:06:23 13:09:58 19° 58° (ENE) 13:13:33 435.822 SSB
KITSAT 1 25 Oct 13:22:20 13:30:26 90° 325° (NW) 13:38:34 435.175 FM
Sapphire 25 Oct 13:28:00 13:33:28 79° 239° (WSW) 13:38:53 437.095 MHz 1200 baud AX-25 AFSK
Gurwin Techsat 1B 25 Oct 13:28:29 13:31:44 17° 56° (NE) 13:34:59 435.225 FM
Oscar 19 25 Oct 13:31:39 13:36:43 62° 71° (ENE) 13:41:48 437.125 CW, 437.150 USB
HO-68 25 Oct 13:38:25 13:38:43 10° 322° (NW) 13:39:02 435.675 MHz FM
TMSAT-1 25 Oct 13:39:43 13:42:47 16° 56° (NE) 13:45:52 436.925 FM
ISS 25 Oct 13:47:08 13:50:23 50° 148° (SSE) 13:53:38 145.800 FM
AO-27 25 Oct 13:50:26 13:55:19 42° 67° (ENE) 14:00:13 436.795 MHz FM
PCSat 25 Oct 13:50:41 13:55:55 50° 244° (WSW) 14:01:07 145.825 MHz
SO-50 25 Oct 14:04:12 14:08:44 81° 308° (NW) 14:13:26 436.795 FM
AO-Echo 25 Oct 14:09:48 14:14:42 72° 73° (ENE) 14:19:48 ?
Oscar 16 25 Oct 14:17:35 14:22:38 53° 260° (W) 14:27:42 437.025 USB, Beacon 2401.1428
Uribyol 2 25 Oct 14:37:32 14:42:46 78° 256° (WSW) 14:48:02 436.500 FM
AO-7 25 Oct 14:43:21 14:50:06 29° 50° (NE) 14:56:51 29.400 - 29.500 MHz
ITAMSAT 1 25 Oct 14:43:42 14:48:54 74° 257° (WSW) 14:54:10 435.822 SSB
JAS-1B 25 Oct 14:54:57 15:00:21 37° 263° (W) 15:05:36 435.800 - 435.900 CW/SSB
Gurwin Techsat 1B 25 Oct 15:05:41 15:11:00 87° 255° (WSW) 15:16:22 435.225 FM
Saudisat 1A 25 Oct 15:09:50 15:13:31 25° 37° (NE) 15:17:11 436.775 MHz
Oscar 19 25 Oct 15:12:50 15:16:30 19° 269° (W) 15:20:10 437.125 CW, 437.150 USB
Sapphire 25 Oct 15:13:43 15:15:58 13° 258° (WSW) 15:18:13 437.095 MHz 1200 baud AX-25 AFSK
TMSAT-1 25 Oct 15:16:39 15:21:58 89° 75° (ENE) 15:27:19 436.925 FM
KITSAT 1 25 Oct 15:19:47 15:26:53 32° 328° (NNW) 15:34:01 435.175 FM
ISS 25 Oct 15:23:53 15:27:07 46° 347° (NNW) 15:30:22 145.800 FM
UOSAT-12 25 Oct 15:25:42 15:30:19 69° 124° (SE) 15:35:03 437.025 FM, 437.400 FM
AO-27 25 Oct 15:30:25 15:34:57 30° 265° (W) 15:39:31 436.795 MHz FM
SO-50 25 Oct 15:46:43 15:50:03 19° 330° (NNW) 15:53:26 436.795 FM
AO-Echo 25 Oct 15:51:03 15:54:04 16° 272° (W) 15:57:09 ?
Uosat F 25 Oct 15:55:32 16:00:04 36° 65° (ENE) 16:04:39 435.120 FM
